Temp
-6 -6 -6 -6 -5 -5 -5 -6 -6 -6 -6 -6 -6 -6 -6 -5 -5 -6 -6 -6 -6 -6 -6 -6 -7 -7 -7 -7 -7 -7 -7 -7 -8 -8 -8 -8 -8 -8 -8 -8 -8 -8 -9
-5 -6 -6 -6 -5 -5 -5 -5 -6 -6 -6 -6 -6 -6 -6 -5 -6 -6 -6 -6 -6 -6 -7 -7 -7 -7 -7 -7 -7 -7 -7 -8 -8 -8 -8 -8 -8 -8 -8 -8 -9 -9 -9
-6 -6 -6 -5 -6 -5 -5 -6 -6 -6 -6 -6 -6 -6 -6 -5 -5 -6 -6 -6 -7 -7 -7 -7 -7 -7 -7 -7 -7 -8 -8 -8 -8 -8 -8 -8 -8 -8 -9 -9 -9 -9 -9
-6 -6 -6 -6 -5 -5 -5 -5 -6 -6 -6 -6 -6 -6 -6 -6 -6 -6 -6 -6 -7 -7 -7 -7 -7 -6 -7 -7 -8 -8 -8 -8 -8 -9 -9 -8 -9 -9 -9 -9 -9 -9 -9
-6 -6 -6 -5 -5 -5 -5 -5 -6 -6 -6 -6 -6 -6 -6 -6 -6 -6 -6 -7 -7 -7 -7 -7 -6 -7 -7 -8 -8 -8 -8 -8 -9 -9 -8 -9 -9 -9 -9 -9 -9 -9 -9
-6 -6 -5 -6 -6 -5 -5 -5 -5 -6 -6 -6 -6 -6 -6 -6 -6 -6 -7 -7 -7 -7 -7 -7 -7 -7 -8 -8 -8 -8 -8 -8 -8 -8 -8 -9 -9 -9 -9 -9 -9 -9 -9
-6 -6 -5 -5 -6 -5 -5 -6 -5 -5 -6 -6 -6 -6 -6 -6 -6 -6 -7 -7 -7 -7 -7 -7 -7 -8 -8 -8 -8 -8 -8 -9 -8 -8 -8 -8 -9 -9 -9 -9 -9 -9 -9
-6 -6 -6 -6 -6 -6 -5 -6 -6 -6 -6 -6 -6 -6 -6 -6 -6 -6 -6 -6 -7 -7 -7 -7 -7 -8 -8 -8 -8 -8 -8 -9 -8 -8 -8 -9 -9 -9 -9 -9 -9 -9 -9
-6 -6 -6 -6 -6 -6 -6 -6 -6 -6 -6 -6 -6 -6 -6 -7 -7 -7 -6 -7 -7 -7 -7 -7 -7 -8 -8 -8 -8 -9 -9 -9 -9 -9 -8 -8 -9 -9 -9 -9 -9 -9 -9
-6 -6 -5 -6 -6 -6 -6 -6 -6 -6 -6 -6 -6 -6 -6 -7 -7 -6 -6 -7 -7 -7 -7 -8 -8 -8 -7 -8 -8 -8 -9 -9 -9 -8 -9 -9 -9 -9 -9 -9 -9 -9 -9
-6 -6 -7 -6 -6 -6 -6 -6 -6 -6 -6 -6 -6 -6 -6 -7 -6 -6 -7 -7 -7 -7 -7 -8 -8 -8 -7 -8 -8 -8 -9 -9 -8 -8 -8 -9 -9 -9 -9 -9 -9 -9 -9
-6 -7 -7 -6 -6 -6 -5 -5 -6 -6 -6 -6 -6 -6 -7 -6 -6 -6 -7 -7 -7 -7 -7 -7 -7 -7 -8 -8 -8 -8 -8 -8 -9 -9 -9 -9 -9 -9 -9 -8 -8 -8 -8
-7 -7 -6 -6 -7 -6 -6 -6 -6 -6 -6 -7 -6 -6 -7 -7 -6 -7 -7 -7 -7 -7 -7 -7 -7 -7 -8 -8 -7 -8 -6 -7 -8 -8 -8 -8 -8 -8 -8 -8 -8 -8 -8
-7 -7 -7 -6 -7 -6 -7 -7 -6 -6 -6 -6 -7 -8 -8 -7 -7 -7 -7 -7 -7 -7 -7 -7 -7 -7 -7 -8 -8 -7 -6 -6 -8 -8 -7 -7 -8 -8 -8 -8 -8 -8 -8
-7 -7 -7 -7 -7 -7 -7 -7 -7 -7 -6 -6 -8 -7 -7 -7 -7 -7 -7 -7 -7 -7 -7 -7 -6 -7 -6 -7 -7 -7 -8 -8 -8 -8 -7 -7 -7 -7 -7 -7 -7 -7 -7
-6 -7 -7 -7 -7 -7 -7 -6 -6 -6 -6 -7 -7 -7 -7 -7 -7 -7 -7 -7 -7 -7 -7 -7 -7 -7 -6 -6 -7 -8 -8 -8 -8 -8 -8 -7 -7 -7 -7 -7 -7 -7 -7
-6 -7 -7 -7 -7 -7 -7 -6 -7 -6 -6 -7 -7 -7 -6 -7 -7 -7 -7 -7 -8 -7 -7 -7 -7 -7 -6 -7 -7 -8 -8 -8 -8 -8 -8 -8 -7 -7 -6 -6 -6 -6 -6
-7 -7 -7 -7 -7 -8 -7 -7 -6 -7 -7 -7 -7 -7 -6 -6 -8 -6 -6 -7 -7 -7 -7 -7 -7 -7 -6 -7 -7 -7 -8 -8 -8 -8 -8 -7 -7 -7 -6 -6 -6 -6 -6
-7 -7 -7 -7 -8 -8 -8 -8 -7 -8 -8 -8 -7 -7 -7 -6 -5 -6 -7 -7 -8 -8 -7 -7 -7 -7 -6 -6 -7 -7 -8 -8 -8 -8 -8 -7 -7 -7 -7 -6 -6 -6 -6
-6 -7 -7 -7 -8 -8 -8 -8 -7 -7 -8 -8 -8 -8 -7 -6 -6 -6 -7 -6 -7 -7 -6 -6 -6 -6 -6 -7 -6 -7 -7 -8 -8 -8 -8 -8 -7 -7 -6 -6 -6 -6 -6
-6 -6 -7 -7 -7 -7 -8 -7 -8 -8 -8 -8 -8 -8 -7 -8 -8 -7 -6 -7 -8 -7 -6 -6 -6 -6 -6 -6 -6 -6 -7 -7 -7 -7 -7 -8 -7 -7 -7 -7 -5 -6 -5
-6 -6 -6 -7 -6 -7 -7 -7 -7 -8 -7 -7 -8 -8 -8 -7 -7 -7 -8 -8 -7 -7 -8 -7 -6 -7 -6 -6 -6 -6 -6 -7 -8 -6 -7 -7 -7 -7 -7 -6 -6 -6 -5
-6 -6 -6 -6 -6 -6 -7 -7 -7 -7 -8 -7 -7 -8 -8 -7 -7 -7 -7 -7 -6 -6 -6 -6 -6 -6 -6 -6 -6 -6 -6 -8 -8 -7 -7 -7 -7 -7 -7 -7 -6 -6 -6
-6 -7 -6 -7 -7 -6 -6 -6 -7 -7 -7 -7 -7 -7 -7 -7 -7 -6 -6 -6 -6 -6 -6 -6 -6 -5 -6 -7 -7 -6 -6 -6 -7 -7 -7 -6 -7 -7 -7 -7 -7 -6 -6
-6 -6 -7 -6 -7 -6 -6 -6 -7 -7 -7 -7 -7 -7 -7 -7 -7 -6 -6 -6 -6 -6 -6 -6 -6 -5 -6 -7 -7 -8 -7 -6 -6 -6 -6 -7 -7 -7 -6 -6 -6 -6 -5
-6 -6 -6 -7 -7 -7 -6 -6 -6 -6 -7 -7 -7 -7 -7 -7 -7 -6 -6 -7 -6 -6 -6 -6 -6 -6 -6 -6 -6 -6 -6 -6 -6 -8 -8 -6 -6 -8 -8 -6 -6 -6 -6
Height
5885 5887 5890 5891 5892 5894 5896 5896 5896 5897 5898 5899 5900 5901 5901 5902 5902 5904 5904 5904 5904 5905 5904 5905 5904 5905 5905 5905 5904 5906 5905 5905 5903 5902 5900 5900 5899 5899 5898 5897 5896 5895 5893
5884 5886 5889 5891 5892 5894 5896 5896 5896 5896 5898 5900 5901 5902 5903 5904 5905 5906 5905 5906 5906 5906 5906 5907 5907 5905 5906 5906 5907 5907 5906 5906 5904 5902 5902 5902 5900 5900 5898 5898 5896 5895 5894
5885 5886 5889 5891 5892 5894 5894 5895 5896 5897 5899 5901 5901 5903 5903 5904 5907 5906 5907 5907 5908 5907 5909 5909 5909 5909 5909 5911 5910 5909 5907 5906 5905 5905 5904 5903 5902 5901 5900 5898 5897 5896 5895
5885 5887 5888 5891 5892 5894 5894 5895 5897 5898 5899 5901 5902 5904 5904 5905 5907 5908 5909 5909 5910 5910 5911 5911 5911 5912 5913 5912 5912 5909 5908 5908 5907 5905 5905 5903 5903 5901 5900 5898 5897 5896 5896
5886 5887 5888 5890 5892 5893 5894 5895 5896 5898 5900 5900 5902 5904 5905 5908 5908 5910 5911 5912 5912 5913 5913 5913 5914 5916 5915 5914 5913 5911 5910 5909 5907 5907 5905 5905 5904 5902 5900 5899 5897 5897 5897
5886 5887 5889 5890 5892 5892 5893 5895 5895 5898 5900 5901 5903 5904 5906 5909 5910 5911 5911 5914 5913 5915 5915 5916 5918 5917 5916 5916 5915 5912 5912 5911 5910 5909 5907 5907 5906 5903 5902 5900 5899 5898 5897
5885 5886 5887 5889 5890 5891 5892 5894 5896 5897 5899 5901 5903 5905 5906 5909 5911 5912 5913 5915 5915 5917 5917 5919 5920 5919 5919 5918 5916 5915 5914 5914 5915 5912 5911 5909 5907 5905 5904 5903 5901 5900 5899
5885 5886 5886 5887 5889 5890 5891 5893 5895 5897 5899 5901 5902 5904 5905 5909 5912 5913 5915 5916 5917 5918 5919 5921 5921 5921 5921 5920 5918 5918 5917 5916 5916 5914 5911 5910 5908 5907 5906 5906 5904 5902 5901
5885 5885 5886 5886 5887 5889 5892 5894 5897 5899 5900 5902 5903 5904 5906 5909 5911 5914 5915 5917 5917 5918 5920 5922 5923 5922 5923 5922 5921 5921 5920 5918 5918 5915 5913 5912 5911 5910 5909 5908 5907 5905 5903
5885 5884 5884 5885 5887 5889 5890 5891 5893 5896 5898 5901 5903 5905 5907 5910 5912 5915 5917 5917 5918 5920 5922 5923 5924 5924 5924 5925 5923 5924 5923 5922 5919 5917 5916 5915 5913 5912 5911 5910 5909 5909 5907
5885 5884 5884 5888 5891 5892 5892 5891 5891 5893 5895 5897 5900 5904 5907 5908 5912 5915 5916 5919 5919 5922 5922 5924 5925 5926 5927 5928 5927 5926 5926 5925 5920 5921 5920 5918 5917 5916 5915 5914 5913 5913 5911
5886 5887 5888 5889 5890 5890 5891 5891 5891 5891 5893 5895 5899 5905 5911 5912 5913 5915 5917 5919 5921 5922 5923 5925 5926 5928 5929 5924 5923 5928 5929 5925 5924 5924 5922 5922 5921 5920 5918 5918 5918 5917 5916
5889 5890 5893 5890 5890 5888 5892 5891 5889 5890 5894 5899 5906 5910 5913 5915 5916 5916 5918 5922 5924 5923 5924 5925 5927 5930 5927 5928 5924 5928 5928 5929 5928 5928 5926 5925 5924 5923 5923 5923 5923 5922 5920
5886 5889 5891 5891 5891 5890 5887 5892 5894 5897 5901 5904 5907 5908 5912 5915 5918 5920 5921 5924 5925 5925 5925 5925 5927 5931 5933 5923 5898 5931 5908 5929 5931 5931 5930 5928 5928 5927 5927 5927 5926 5926 5925
5888 5888 5891 5893 5895 5892 5890 5895 5900 5899 5903 5905 5908 5912 5915 5916 5918 5921 5924 5926 5928 5928 5928 5928 5928 5931 5935 5936 5934 5937 5936 5935 5934 5934 5933 5932 5932 5932 5931 5930 5930 5929 5929
5890 5889 5890 5893 5899 5899 5895 5902 5902 5905 5906 5908 5909 5910 5912 5913 5919 5922 5922 5925 5928 5930 5929 5929 5930 5933 5935 5937 5938 5938 5938 5937 5937 5937 5935 5935 5936 5936 5935 5934 5933 5933 5932
5891 5891 5889 5891 5894 5903 5901 5904 5898 5909 5909 5908 5907 5913 5916 5919 5919 5916 5918 5924 5925 5930 5930 5931 5933 5935 5937 5937 5938 5939 5940 5940 5940 5940 5938 5938 5938 5938 5939 5938 5937 5936 5935
5891 5892 5891 5892 5893 5895 5902 5904 5905 5907 5910 5908 5909 5917 5919 5916 5898 5910 5920 5927 5926 5932 5932 5934 5935 5938 5939 5940 5940 5941 5942 5942 5943 5943 5943 5941 5940 5940 5941 5940 5940 5939 5938
5890 5891 5892 5892 5895 5897 5900 5903 5899 5898 5907 5910 5911 5918 5919 5923 5916 5901 5909 5924 5921 5933 5930 5931 5933 5936 5942 5942 5942 5942 5942 5942 5942 5943 5944 5944 5944 5943 5943 5942 5942 5941 5941
5891 5891 5892 5893 5893 5895 5899 5903 5904 5907 5912 5913 5911 5916 5915 5914 5912 5896 5904 5925 5926 5932 5932 5938 5938 5935 5940 5942 5942 5942 5943 5944 5944 5943 5944 5944 5946 5947 5945 5944 5944 5944 5943
5890 5891 5891 5892 5893 5895 5896 5901 5903 5907 5910 5911 5915 5916 5918 5918 5914 5916 5925 5928 5929 5932 5931 5937 5937 5933 5939 5940 5940 5942 5943 5946 5942 5942 5937 5941 5942 5944 5945 5946 5945 5945 5944
5889 5892 5892 5892 5893 5894 5896 5899 5903 5906 5909 5911 5913 5916 5919 5921 5922 5921 5922 5925 5929 5933 5933 5931 5933 5939 5942 5943 5944 5942 5944 5945 5941 5927 5946 5941 5942 5944 5944 5944 5947 5947 5944
5889 5891 5893 5893 5893 5894 5896 5898 5901 5904 5907 5910 5913 5915 5919 5922 5924 5926 5928 5929 5930 5932 5935 5935 5938 5941 5942 5942 5946 5945 5930 5940 5936 5940 5943 5944 5940 5941 5940 5943 5943 5945 5946
5885 5883 5887 5891 5894 5894 5895 5897 5900 5903 5906 5908 5912 5915 5918 5921 5923 5925 5926 5927 5929 5932 5932 5933 5937 5940 5940 5934 5939 5943 5941 5939 5940 5944 5940 5934 5941 5942 5942 5939 5943 5942 5944
5881 5865 5879 5889 5891 5895 5895 5896 5899 5902 5905 5907 5910 5912 5915 5918 5921 5923 5925 5926 5927 5931 5931 5934 5935 5938 5940 5936 5931 5937 5928 5935 5942 5942 5943 5944 5941 5942 5935 5941 5938 5942 5942
5867 5868 5888 5887 5888 5893 5896 5896 5898 5900 5903 5905 5908 5911 5913 5915 5918 5921 5923 5925 5927 5929 5930 5932 5934 5936 5938 5940 5939 5938 5935 5941 5942 5941 5942 5940 5941 5934 5936 5937 5935 5939 5940
Wind_Speed
13 16 17 17 14 12 11 8 6 9 5 5 4 4 5 7 8 8 10 12 13 13 14 14 15 15 13 16 16 13 11 11 11 12 12 11 10 9 8 8 6 6 5
12 14 17 16 14 13 10 8 6 11 8 7 5 6 7 8 8 9 10 12 12 13 15 15 15 16 16 16 13 11 12 12 12 12 12 11 12 11 10 8 7 6 5
12 12 16 15 14 12 9 10 5 10 10 10 7 8 8 9 9 10 11 13 14 15 15 15 15 16 16 12 11 11 14 14 12 13 14 13 13 12 10 10 9 9 8
9 15 17 15 12 10 10 11 7 2 8 9 9 10 9 9 9 10 12 14 15 15 14 15 16 14 12 11 12 15 14 15 14 16 13 14 14 14 14 14 14 13 11
13 10 13 11 8 7 10 11 9 5 9 13 10 11 10 10 10 12 14 14 15 15 15 15 14 12 12 14 14 15 16 15 16 13 13 14 13 15 16 14 14 12 10
10 12 10 11 11 9 7 9 9 10 9 12 12 12 11 11 11 14 15 15 16 15 15 16 13 14 15 15 15 16 16 18 16 14 15 13 13 15 17 18 14 12 10
5 8 10 11 11 11 8 8 8 7 11 11 13 13 14 14 13 15 17 15 15 15 18 16 16 17 16 17 17 18 18 19 11 14 14 15 15 17 18 17 17 15 13
7 7 6 10 12 13 11 11 10 9 9 13 14 16 17 16 15 17 15 17 17 20 19 17 18 19 19 20 20 21 21 20 17 18 20 19 18 17 16 16 17 17 16
7 8 9 10 14 12 9 11 8 9 10 14 16 17 17 16 13 16 21 19 20 22 20 19 19 20 20 19 21 20 21 18 19 24 21 20 19 17 17 17 17 17 17
6 6 5 9 13 13 12 12 10 10 14 15 16 14 11 11 21 21 22 21 25 22 20 20 19 19 17 17 20 20 22 23 23 23 22 21 21 20 19 18 18 18 19
5 6 7 4 2 4 9 12 13 12 14 14 21 16 20 24 26 24 23 23 25 22 20 20 18 16 16 17 18 18 19 19 26 25 24 23 22 22 20 19 19 19 19
7 6 3 5 3 2 10 3 15 10 13 18 17 23 23 24 26 25 23 25 24 22 20 19 17 15 14 13 20 18 14 22 23 22 24 23 23 23 23 22 21 20 20
10 7 17 5 6 7 2 1 11 15 22 25 24 23 24 24 24 24 23 25 23 22 20 19 17 15 10 7 17 17 17 18 19 19 21 22 23 24 24 23 22 22 21
4 8 10 6 9 5 17 7 12 15 15 13 15 21 25 23 22 20 22 24 23 21 18 15 16 15 11 7 20 18 11 13 17 19 20 22 22 22 23 23 23 22 22
8 5 10 9 8 5 20 20 14 11 8 12 20 22 21 22 22 20 20 22 20 19 18 16 14 14 13 10 8 8 10 11 13 16 17 19 18 19 20 21 21 22 22
10 9 8 8 13 9 2 3 5 9 9 12 17 20 21 21 20 21 22 22 20 14 15 15 13 11 10 9 7 8 8 10 10 12 16 14 15 17 17 18 18 18 18
10 6 7 6 7 14 6 10 5 9 11 11 14 16 11 17 18 24 22 21 22 19 16 13 11 10 9 8 8 8 7 8 8 9 9 11 13 13 13 13 14 14 15
8 8 8 8 7 6 10 9 8 10 9 10 11 14 9 13 32 7 16 18 23 17 15 13 12 8 9 7 6 5 4 6 7 7 6 9 8 10 9 9 10 10 12
7 9 11 11 11 11 10 11 8 17 10 9 10 15 16 18 13 20 34 22 26 19 19 16 14 12 5 6 5 4 4 3 5 5 7 5 5 7 8 6 7 6 8
6 5 9 9 13 11 13 14 15 11 11 12 8 6 11 14 13 6 24 23 24 17 16 11 11 12 8 6 4 3 3 2 4 4 4 4 3 6 4 5 5 4 6
6 6 5 6 10 13 15 14 14 13 10 11 13 15 15 16 14 11 9 20 19 17 16 14 9 7 9 9 7 3 4 2 3 3 10 4 5 3 4 4 3 3 4
3 5 4 5 7 11 15 16 15 14 13 11 10 12 13 17 17 14 15 15 22 24 19 12 10 8 9 5 3 4 3 4 4 3 4 4 6 4 3 3 3 4 4
4 6 6 6 7 11 14 15 15 16 15 14 13 14 15 16 16 18 19 22 24 24 21 20 15 11 7 8 4 5 5 10 10 9 7 2 6 3 6 2 3 5 6
9 12 6 7 8 10 13 15 16 18 17 16 15 15 15 17 15 16 17 19 22 23 24 22 16 12 11 15 6 5 5 9 10 3 6 4 5 4 2 4 3 2 3
13 13 3 9 8 10 13 16 17 17 18 18 17 17 15 16 15 16 15 17 19 20 22 19 16 14 14 11 12 5 17 2 7 8 3 1 6 6 4 6 3 8 3
21 12 16 11 7 12 12 16 16 17 20 19 18 17 17 17 16 15 15 14 17 20 20 19 18 14 12 11 10 9 10 8 7 1 9 8 11 12 5 3 5 8 9
Wind_Direction
221 208 198 202 207 215 200 212 222 227 218 182 180 140 101 100 104 95 90 80 78 79 81 85 82 80 74 69 62 57 50 45 41 35 29 23 20 20 20 20 9 0 5
229 211 199 207 206 192 199 215 201 210 207 198 188 148 131 124 123 112 98 86 87 89 88 84 79 76 73 61 53 45 45 42 43 43 36 33 38 38 31 24 23 18 21
227 216 196 199 190 194 206 205 181 208 216 206 190 158 148 139 141 124 108 98 96 89 89 83 79 77 64 57 53 52 53 52 52 56 55 51 49 42 38 34 33 30 26
228 220 187 189 195 201 201 205 179 170 212 201 190 160 155 152 147 124 106 103 103 99 92 85 83 75 72 65 61 60 62 65 63 58 60 54 49 47 43 42 38 38 32
202 186 178 191 202 206 208 205 171 238 203 192 171 159 165 164 145 130 112 114 108 103 93 91 89 84 76 68 69 70 68 64 57 59 56 55 55 58 55 55 54 23 15
186 199 198 202 212 213 221 210 212 202 180 171 174 174 173 170 149 129 122 119 112 106 102 102 97 86 75 76 75 73 66 55 47 42 46 51 57 59 54 46 40 36 24
182 178 195 208 208 213 208 204 213 208 201 207 194 189 182 179 157 144 132 117 116 114 115 106 98 84 82 81 74 67 66 63 50 53 53 51 56 54 52 50 50 50 48
167 175 173 192 200 209 211 219 216 213 227 210 200 200 193 178 167 149 143 129 129 124 115 109 99 90 85 79 78 74 71 67 61 58 51 50 51 53 51 47 50 54 59
164 166 187 188 192 198 203 213 221 247 251 219 212 215 201 183 192 162 140 141 131 125 121 115 106 94 87 83 81 72 66 61 67 55 54 56 56 56 56 50 48 51 59
155 141 172 195 195 208 204 203 208 233 240 235 221 230 217 182 143 145 145 136 132 129 126 123 109 97 85 84 81 70 73 65 65 60 56 59 63 59 59 56 53 51 58
148 142 107 134 204 250 243 225 212 237 225 234 227 200 152 142 146 147 143 141 136 135 131 124 118 103 85 78 76 76 69 68 64 65 64 60 63 65 64 60 56 56 57
173 159 62 83 98 262 246 314 224 246 198 166 158 146 144 145 148 149 144 144 143 138 131 130 122 107 94 106 98 75 72 64 66 63 69 67 67 68 66 62 61 61 61
167 167 137 177 152 356 304 150 152 151 160 151 140 141 145 152 151 147 143 149 143 139 135 133 126 120 110 89 97 79 66 54 65 67 74 74 72 71 71 68 68 67 66
185 165 156 198 96 241 68 177 149 111 129 122 123 139 148 147 146 145 146 150 147 144 137 133 133 124 117 79 76 81 20 71 71 71 72 75 75 78 75 74 72 71 70
185 195 167 169 152 217 93 96 83 100 121 129 141 140 145 146 150 147 146 151 149 150 142 132 134 133 130 127 92 104 96 81 76 76 76 77 80 80 78 77 75 73 70
189 193 200 188 156 174 350 93 188 121 122 135 138 148 163 159 156 161 149 151 158 152 140 135 136 142 136 146 122 106 95 83 74 79 77 73 78 78 77 80 79 72 69
166 181 220 206 198 159 165 165 97 161 150 147 160 152 157 159 159 168 152 152 155 164 152 146 145 151 144 135 107 109 104 91 76 74 81 75 80 73 80 77 78 71 61
220 210 197 206 212 207 167 180 195 176 152 154 167 160 176 199 162 116 135 170 159 159 147 157 154 167 155 139 120 108 103 95 85 75 73 86 80 83 87 86 81 68 52
233 227 204 200 191 202 194 184 209 141 144 154 185 158 160 177 150 170 171 171 155 163 172 176 163 153 156 145 135 150 145 109 98 100 71 61 69 83 83 91 84 64 49
235 238 229 219 211 204 204 195 194 201 181 172 178 121 164 159 170 128 104 165 158 165 185 178 173 147 157 172 176 167 163 146 117 97 91 64 49 63 59 93 84 60 32
241 231 232 229 228 218 212 201 201 196 193 184 171 184 165 162 188 194 146 160 163 169 192 196 188 151 185 195 185 185 233 204 257 191 148 109 141 101 46 42 73 38 8
241 248 278 252 249 225 218 212 207 201 198 201 191 191 179 173 178 185 187 168 177 178 212 200 201 203 221 235 230 219 292 219 159 208 241 139 144 134 84 88 63 22 8
257 250 259 265 259 236 224 218 213 207 202 203 203 198 197 190 185 187 185 186 191 194 198 211 204 205 227 250 270 292 280 297 302 135 124 120 132 169 134 62 37 31 348
252 220 218 245 261 229 220 214 217 210 208 211 206 207 203 202 200 198 195 194 196 195 197 218 215 200 213 242 181 263 282 301 317 85 170 181 225 177 179 151 292 313 12
248 281 265 221 226 226 228 214 212 212 214 214 211 214 213 203 205 204 204 201 203 202 208 214 219 219 210 250 271 68 260 347 313 333 23 357 252 234 142 251 185 276 289
251 169 229 223 221 231 240 219 216 216 212 211 215 218 217 213 208 206 209 211 208 209 211 219 221 231 229 228 247 261 295 290 292 326 334 294 234 331 63 291 301 270 280